Погода в Кремлеве

Россия / Рязанская область     53°47′53″N   39°17′53″E
темп.,
°C
ветер,
м/с
пор.,
м/с
влажн.,
%
обл.,
%
осадки,
мм/ч
давл.,
гПа
погр.,
м
18 апреля, вс
вс1800:00+7ююз238878 2.9 1018275
03:00+7ююв2393100 3.1 1018106
06:00+6юв229453 0.0 101861
09:00+9юв23735 0.0 1018606
12:00+11в336483 0.8 10181080
15:00+11вюв3462100 2.5 1018907
18:00+11юв466395 1.1 1018445
21:00+8всв4780100 1.4 1019182
19 апреля, пн
пн1900:00+7св4893100 0.1 1019218
03:00+6всв4897100 0.4 1019246
06:00+6св5992100 0.5 1019372
09:00+7всв7989100 0.6 1020603
12:00+6всв5994100 5.4 1020968
15:00+4всв61297100 8.2 1020815
18:00+5всв61196100 2.8 1020924
21:00+4всв71297100 3.6 1020895
20 апреля, вт
вт2000:00+5всв61290100 0.9 1019648
03:00+5в71392100 0.9 1019685
06:00+4в71195100 0.1 1018616
09:00+3в61197100 0.1 1018520
12:00+4в61197100 0.0 1017531
15:00+5в81391100 0.0 1015691
18:00+4в81594100 0.8 1012680
21:00+3в112095100 12.8 10061052
21 апреля, ср
ср2100:00+6вюв101994100 4.2 1003877
03:00+8вюв91695100 4.4 1001702
06:00+8юв4109595 1.2 999397
09:00+7ююв61194100 1.6 999694
12:00+3юз91596100 0.3 1003735
15:00+5юз91488100 0.4 10091091
18:00+6юз6128376 0.1 1012868
21:00+5ююз3889100 0.1 1014264
22 апреля, чт
чт2200:00+5ююз5118713 0.1 1015401
03:00+4ююз61289100 0.1 1016624
06:00+5ююз4109264 0.1 1017397
09:00+8ююз588023 0.1 1018621
12:00+11ююз796982 0.2 10181277
15:00+12ююз686594 0.6 10181470
18:00+12ююз6117256 1.4 1019646
21:00+9ю51384100 1.9 1020356